This demonstration page uses our WeatherBlox Daily Observations layout. Learn more.

Left ArrowRight Arrow

47.50024, -111.30081

Hourly Observations for January 11, 2022

Temp ( °F °C ) Dew Point ( °F °C ) Humidity (%) Winds ( mph kmh ) Pressure ( in mb ) Visibility ( mi km ) Precip ( " mm )
12:53 am 00:53 Clear 34 1.1 19 -7.2 54 54 SW 15 24 30.31 1026 10 16 0.00 0.00
1:53 am 01:53 Clear 36 2.2 19 -7.2 50 50 SW 28 44 30.28 1025 10 16 0.00 0.00
2:53 am 02:53 Clear 36 2.2 18 -7.8 48 48 SW 23 37 30.31 1026 10 16 0.00 0.00
3:53 am 03:53 Clear 38 3.3 17 -8.3 43 43 SW 29 46 30.30 1026 10 16 0.00 0.00
4:53 am 04:53 Clear 38 3.3 17 -8.3 43 43 SW 32 52 30.30 1026 10 16 0.00 0.00
5:53 am 05:53 Clear 37 2.8 18 -7.8 46 46 SW 26 43 30.31 1026 10 16 0.00 0.00
6:53 am 06:53 Clear 37 2.8 18 -7.8 46 46 SW 24 39 30.29 1026 10 16 0.00 0.00
7:53 am 07:53 Clear 37 2.8 19 -7.2 48 48 SW 22 35 30.27 1025 10 16 0.00 0.00
8:53 am 08:53 Sunny 37 2.8 19 -7.2 48 48 SW 22 35 30.24 1024 10 16 0.00 0.00
9:53 am 09:53 Sunny 38 3.3 20 -6.7 48 48 SW 28 44 30.21 1023 10 16 0.00 0.00
10:53 am 10:53 Sunny 40 4.4 23 -5 51 51 SW 30 48 30.18 1022 10 16 0.00 0.00
11:53 am 11:53 Sunny 40 4.4 23 -5 51 51 SW 28 44 30.16 1022 10 16 0.00 0.00
12:53 pm 12:53 Sunny 40 4.4 24 -4.4 53 53 SSW 22 35 30.16 1021 10 16 0.00 0.00
1:53 pm 13:53 Sunny 41 5 26 -3.3 55 55 SW 33 54 30.09 1019 10 16 0.00 0.00
2:53 pm 14:53 Sunny 42 5.6 27 -2.8 55 55 SW 30 48 30.09 1019 10 16 0.00 0.00
3:53 pm 15:53 Sunny 42 5.6 27 -2.8 55 55 SW 33 54 30.07 1018 10 16 0.00 0.00
4:53 pm 16:53 Sunny 42 5.6 28 -2.2 58 58 SW 29 46 30.07 1018 10 16 0.00 0.00
5:53 pm 17:53 Clear 42 5.6 28 -2.2 58 58 SW 40 65 30.07 1018 10 16 0.00 0.00
6:53 pm 18:53 Clear 41 5 28 -2.2 60 60 SW 25 41 30.16 1021 10 16 0.00 0.00
7:53 pm 19:53 Clear 41 5 28 -2.2 60 60 SW 29 46 30.14 1021 10 16 0.00 0.00
8:53 pm 20:53 Clear 42 5.6 29 -1.7 60 60 SW 28 44 30.12 1020 10 16 0.00 0.00
9:53 pm 21:53 Clear 42 5.6 29 -1.7 60 60 SW 26 43 30.14 1021 10 16 0.00 0.00
10:53 pm 22:53 Clear 43 6.1 29 -1.7 58 58 SW 24 39 30.12 1020 10 16 0.00 0.00
11:53 pm 23:53 Clear 43 6.1 29 -1.7 58 58 SW 22 35 30.12 1020 10 16 0.00 0.00

Powered by AerisWeather